Time,TemperatureF,DewpointF,PressureIn,WindDirection,WindDirectionDegrees,WindSpeedMPH,WindSpeedGustMPH,Humidity,HourlyPrecipIn,Conditions,Clouds,dailyrainin,SoftwareType,DateUTC
2013-03-29 00:03:00,51.0,-99.9,-100.00,SSE,165,5.0,8.0,-999,-99.99,,,-99.99,,2013-03-29 04:03:00,
2013-03-29 00:13:00,51.0,-99.9,-100.00,SSE,155,4.0,7.0,-999,-99.99,,,-99.99,,2013-03-29 04:13:00,
2013-03-29 00:23:00,49.0,-99.9,-100.00,ENE,70,4.0,9.0,-999,-99.99,,,-99.99,,2013-03-29 04:23:00,
2013-03-29 00:33:00,50.0,-99.9,-100.00,SE,130,4.0,8.0,-999,-99.99,,,-99.99,,2013-03-29 04:33:00,
2013-03-29 00:43:00,50.0,-99.9,-100.00,SE,145,2.0,5.0,-999,-99.99,,,-99.99,,2013-03-29 04:43:00,
2013-03-29 00:53:00,51.0,-99.9,-100.00,SE,130,3.0,5.0,-999,-99.99,,,-99.99,,2013-03-29 04:53:00,
2013-03-29 01:03:00,51.0,-99.9,-100.00,SE,125,2.0,6.0,-999,-99.99,,,-99.99,,2013-03-29 05:03:00,
2013-03-29 01:13:00,50.0,-99.9,-100.00,East,90,3.0,5.0,-999,-99.99,,,-99.99,,2013-03-29 05:13:00,
2013-03-29 01:23:00,50.0,-99.9,-100.00,East,100,2.0,6.0,-999,-99.99,,,-99.99,,2013-03-29 05:23:00,
2013-03-29 01:33:00,50.0,-99.9,-100.00,East,100,3.0,6.0,-999,-99.99,,,-99.99,,2013-03-29 05:33:00,
2013-03-29 01:44:00,50.0,-99.9,-100.00,ESE,110,2.0,6.0,-999,-99.99,,,-99.99,,2013-03-29 05:44:00,
2013-03-29 01:53:00,50.0,-99.9,-100.00,ESE,105,2.0,6.0,-999,-99.99,,,-99.99,,2013-03-29 05:53:00,
2013-03-29 02:03:00,50.0,-99.9,-100.00,East,85,1.0,4.0,-999,-99.99,,,-99.99,,2013-03-29 06:03:00,
2013-03-29 02:13:00,48.0,-99.9,-100.00,NE,40,1.0,6.0,-999,-99.99,,,-99.99,,2013-03-29 06:13:00,
2013-03-29 02:23:00,48.0,-99.9,-100.00,NE,50,2.0,6.0,-999,-99.99,,,-99.99,,2013-03-29 06:23:00,
2013-03-29 02:32:00,49.0,-99.9,-100.00,NE,40,1.0,4.0,-999,-99.99,,,-99.99,,2013-03-29 06:32:00,
2013-03-29 02:42:00,49.0,-99.9,-100.00,NE,50,1.0,2.0,-999,-99.99,,,-99.99,,2013-03-29 06:42:00,
2013-03-29 02:52:00,50.0,-99.9,-100.00,NE,45,1.0,4.0,-999,-99.99,,,-99.99,,2013-03-29 06:52:00,
2013-03-29 03:03:00,49.0,-99.9,-100.00,NE,50,1.0,4.0,-999,-99.99,,,-99.99,,2013-03-29 07:03:00,
2013-03-29 03:12:00,49.0,-99.9,-100.00,NE,50,1.0,2.0,-999,-99.99,,,-99.99,,2013-03-29 07:12:00,
2013-03-29 03:22:00,49.0,-99.9,-100.00,NNE,15,1.0,4.0,-999,-99.99,,,-99.99,,2013-03-29 07:22:00,
2013-03-29 03:32:00,50.0,-99.9,-100.00,North,0,1.0,3.0,-999,-99.99,,,-99.99,,2013-03-29 07:32:00,
2013-03-29 03:42:00,49.0,-99.9,-100.00,NNE,15,1.0,4.0,-999,-99.99,,,-99.99,,2013-03-29 07:42:00,
2013-03-29 03:52:00,49.0,-99.9,-100.00,NNE,15,2.0,4.0,-999,-99.99,,,-99.99,,2013-03-29 07:52:00,
2013-03-29 04:02:00,49.0,-99.9,-100.00,NNE,30,1.0,3.0,-999,-99.99,,,-99.99,,2013-03-29 08:02:00,
2013-03-29 04:13:00,49.0,-99.9,-100.00,North,5,1.0,2.0,-999,-99.99,,,-99.99,,2013-03-29 08:13:00,
2013-03-29 04:22:00,49.0,-99.9,-100.00,North,0,2.0,3.0,-999,-99.99,,,-99.99,,2013-03-29 08:22:00,
2013-03-29 04:32:00,49.0,-99.9,-100.00,NNW,340,2.0,4.0,-999,-99.99,,,-99.99,,2013-03-29 08:32:00,
2013-03-29 04:42:00,48.0,-99.9,-100.00,NNW,345,2.0,3.0,-999,-99.99,,,-99.99,,2013-03-29 08:42:00,
2013-03-29 04:53:00,47.0,-99.9,-100.00,North,350,4.0,4.0,-999,-99.99,,,-99.99,,2013-03-29 08:53:00,
2013-03-29 05:02:00,47.0,-99.9,-100.00,North,350,1.0,3.0,-999,-99.99,,,-99.99,,2013-03-29 09:02:00,
2013-03-29 05:13:00,47.0,-99.9,-100.00,NW,315,1.0,8.0,-999,-99.99,,,-99.99,,2013-03-29 09:13:00,
2013-03-29 05:22:00,45.0,-99.9,-100.00,NNE,15,1.0,4.0,-999,-99.99,,,-99.99,,2013-03-29 09:22:00,
2013-03-29 05:33:00,45.0,-99.9,-100.00,NNW,345,1.0,4.0,-999,-99.99,,,-99.99,,2013-03-29 09:33:00,
2013-03-29 05:43:00,45.0,-99.9,-100.00,North,5,1.0,4.0,-999,-99.99,,,-99.99,,2013-03-29 09:43:00,
2013-03-29 05:53:00,44.0,-99.9,-100.00,NNE,25,2.0,5.0,-999,-99.99,,,-99.99,,2013-03-29 09:53:00,
2013-03-29 06:03:00,44.0,-99.9,-100.00,NNE,25,4.0,6.0,-999,-99.99,,,-99.99,,2013-03-29 10:03:00,
2013-03-29 06:12:00,44.0,-99.9,-100.00,North,10,4.0,9.0,-999,-99.99,,,-99.99,,2013-03-29 10:12:00,
2013-03-29 06:23:00,43.0,-99.9,-100.00,NNE,15,6.0,11.0,-999,-99.99,,,-99.99,,2013-03-29 10:23:00,
2013-03-29 06:33:00,44.0,-99.9,-100.00,NNE,15,11.0,14.0,-999,-99.99,,,-99.99,,2013-03-29 10:33:00,
2013-03-29 06:43:00,44.0,-99.9,-100.00,NNE,20,10.0,14.0,-999,-99.99,,,-99.99,,2013-03-29 10:43:00,
2013-03-29 06:54:00,43.0,-99.9,-100.00,NNE,25,11.0,14.0,-999,-99.99,,,-99.99,,2013-03-29 10:54:00,
2013-03-29 07:04:00,43.0,-99.9,-100.00,NNE,20,9.0,12.0,-999,-99.99,,,-99.99,,2013-03-29 11:04:00,
2013-03-29 07:13:00,43.0,-99.9,-100.00,NNE,15,11.0,14.0,-999,-99.99,,,-99.99,,2013-03-29 11:13:00,
2013-03-29 07:24:00,43.0,-99.9,-100.00,NNE,20,11.0,14.0,-999,-99.99,,,-99.99,,2013-03-29 11:24:00,
2013-03-29 07:33:00,43.0,-99.9,-100.00,NNE,25,14.0,17.0,-999,-99.99,,,-99.99,,2013-03-29 11:33:00,
2013-03-29 07:43:00,43.0,-99.9,-100.00,NNE,25,10.0,17.0,-999,-99.99,,,-99.99,,2013-03-29 11:43:00,
2013-03-29 07:53:00,43.0,-99.9,-100.00,NNE,20,11.0,14.0,-999,-99.99,,,-99.99,,2013-03-29 11:53:00,
2013-03-29 08:03:00,42.0,-99.9,-100.00,NNE,20,11.0,13.0,-999,-99.99,,,-99.99,,2013-03-29 12:03:00,
2013-03-29 08:13:00,42.0,-99.9,-100.00,NNE,25,11.0,13.0,-999,-99.99,,,-99.99,,2013-03-29 12:13:00,
2013-03-29 08:22:00,42.0,-99.9,-100.00,NNE,25,10.0,12.0,-999,-99.99,,,-99.99,,2013-03-29 12:22:00,
2013-03-29 08:33:00,42.0,-99.9,-100.00,NNE,25,9.0,11.0,-999,-99.99,,,-99.99,,2013-03-29 12:33:00,
2013-03-29 08:43:00,42.0,-99.9,-100.00,NNE,25,8.0,11.0,-999,-99.99,,,-99.99,,2013-03-29 12:43:00,
2013-03-29 08:53:00,42.0,-99.9,-100.00,NNE,25,8.0,11.0,-999,-99.99,,,-99.99,,2013-03-29 12:53:00,
2013-03-29 09:03:00,42.0,-99.9,-100.00,NE,40,6.0,9.0,-999,-99.99,,,-99.99,,2013-03-29 13:03:00,
2013-03-29 09:13:00,43.0,-99.9,-100.00,NE,35,6.0,7.0,-999,-99.99,,,-99.99,,2013-03-29 13:13:00,
2013-03-29 09:23:00,43.0,-99.9,-100.00,NNE,30,5.0,7.0,-999,-99.99,,,-99.99,,2013-03-29 13:23:00,
2013-03-29 09:33:00,43.0,-99.9,-100.00,NNE,25,6.0,8.0,-999,-99.99,,,-99.99,,2013-03-29 13:33:00,
2013-03-29 09:43:00,44.0,-99.9,-100.00,NNE,30,4.0,7.0,-999,-99.99,,,-99.99,,2013-03-29 13:43:00,
2013-03-29 09:53:00,44.0,-99.9,-100.00,NNE,30,4.0,7.0,-999,-99.99,,,-99.99,,2013-03-29 13:53:00,
2013-03-29 10:03:00,46.0,-99.9,-100.00,NE,55,5.0,7.0,-999,-99.99,,,-99.99,,2013-03-29 14:03:00,
2013-03-29 10:13:00,46.0,-99.9,-100.00,NNE,30,6.0,6.0,-999,-99.99,,,-99.99,,2013-03-29 14:13:00,
2013-03-29 10:22:00,47.0,-99.9,-100.00,NE,50,6.0,8.0,-999,-99.99,,,-99.99,,2013-03-29 14:22:00,
2013-03-29 10:33:00,49.0,-99.9,-100.00,NE,50,4.0,9.0,-999,-99.99,,,-99.99,,2013-03-29 14:33:00,
2013-03-29 10:43:00,50.0,-99.9,-100.00,ENE,75,8.0,11.0,-999,-99.99,,,-99.99,,2013-03-29 14:43:00,
2013-03-29 10:53:00,51.0,-99.9,-100.00,ENE,70,8.0,14.0,-999,-99.99,,,-99.99,,2013-03-29 14:53:00,
2013-03-29 11:03:00,51.0,-99.9,-100.00,ENE,70,8.0,14.0,-999,-99.99,,,-99.99,,2013-03-29 15:03:00,
2013-03-29 11:12:00,51.0,-99.9,-100.00,East,80,7.0,14.0,-999,-99.99,,,-99.99,,2013-03-29 15:12:00,
2013-03-29 11:22:00,52.0,-99.9,-100.00,ENE,75,7.0,10.0,-999,-99.99,,,-99.99,,2013-03-29 15:22:00,
2013-03-29 11:33:00,53.0,-99.9,-100.00,NE,55,5.0,11.0,-999,-99.99,,,-99.99,,2013-03-29 15:33:00,
2013-03-29 11:43:00,53.0,-99.9,-100.00,NE,45,5.0,10.0,-999,-99.99,,,-99.99,,2013-03-29 15:43:00,
2013-03-29 11:53:00,53.0,-99.9,-100.00,East,90,4.0,8.0,-999,-99.99,,,-99.99,,2013-03-29 15:53:00,
2013-03-29 12:03:00,54.0,-99.9,-100.00,NE,40,4.0,11.0,-999,-99.99,,,-99.99,,2013-03-29 16:03:00,
2013-03-29 12:13:00,54.0,-99.9,-100.00,East,80,4.0,9.0,-999,-99.99,,,-99.99,,2013-03-29 16:13:00,
2013-03-29 12:23:00,55.0,-99.9,-100.00,East,80,6.0,13.0,-999,-99.99,,,-99.99,,2013-03-29 16:23:00,
2013-03-29 12:33:00,55.0,-99.9,-100.00,East,85,6.0,11.0,-999,-99.99,,,-99.99,,2013-03-29 16:33:00,
2013-03-29 12:43:00,55.0,-99.9,-100.00,ENE,70,5.0,9.0,-999,-99.99,,,-99.99,,2013-03-29 16:43:00,
2013-03-29 12:53:00,56.0,-99.9,-100.00,East,90,6.0,11.0,-999,-99.99,,,-99.99,,2013-03-29 16:53:00,
2013-03-29 13:04:00,55.0,-99.9,-100.00,ENE,65,5.0,9.0,-999,-99.99,,,-99.99,,2013-03-29 17:04:00,
2013-03-29 13:12:00,57.0,-99.9,-100.00,East,90,5.0,14.0,-999,-99.99,,,-99.99,,2013-03-29 17:12:00,
2013-03-29 13:23:00,57.0,-99.9,-100.00,SE,140,5.0,10.0,-999,-99.99,,,-99.99,,2013-03-29 17:23:00,
2013-03-29 13:34:00,56.0,-99.9,-100.00,East,95,5.0,11.0,-999,-99.99,,,-99.99,,2013-03-29 17:34:00,
2013-03-29 13:44:00,56.0,-99.9,-100.00,ENE,70,6.0,11.0,-999,-99.99,,,-99.99,,2013-03-29 17:44:00,
2013-03-29 13:53:00,56.0,-99.9,-100.00,ENE,65,5.0,11.0,-999,-99.99,,,-99.99,,2013-03-29 17:53:00,
2013-03-29 14:03:00,57.0,-99.9,-100.00,East,90,4.0,9.0,-999,-99.99,,,-99.99,,2013-03-29 18:03:00,
2013-03-29 14:13:00,58.0,-99.9,-100.00,ENE,65,5.0,10.0,-999,-99.99,,,-99.99,,2013-03-29 18:13:00,
2013-03-29 14:23:00,58.0,-99.9,-100.00,ESE,105,4.0,10.0,-999,-99.99,,,-99.99,,2013-03-29 18:23:00,
2013-03-29 14:33:00,59.0,-99.9,-100.00,East,90,4.0,10.0,-999,-99.99,,,-99.99,,2013-03-29 18:33:00,
2013-03-29 14:43:00,59.0,-99.9,-100.00,ESE,105,5.0,9.0,-999,-99.99,,,-99.99,,2013-03-29 18:43:00,
2013-03-29 14:53:00,58.0,-99.9,-100.00,SE,135,4.0,11.0,-999,-99.99,,,-99.99,,2013-03-29 18:53:00,
2013-03-29 15:03:00,58.0,-99.9,-100.00,SE,140,4.0,11.0,-999,-99.99,,,-99.99,,2013-03-29 19:03:00,
2013-03-29 15:13:00,59.0,-99.9,-100.00,ESE,120,5.0,9.0,-999,-99.99,,,-99.99,,2013-03-29 19:13:00,
2013-03-29 15:23:00,58.0,-99.9,-100.00,South,185,9.0,14.0,-999,-99.99,,,-99.99,,2013-03-29 19:23:00,
2013-03-29 15:33:00,57.0,-99.9,-100.00,SSE,160,12.0,16.0,-999,-99.99,,,-99.99,,2013-03-29 19:33:00,
2013-03-29 15:43:00,57.0,-99.9,-100.00,ESE,120,11.0,15.0,-999,-99.99,,,-99.99,,2013-03-29 19:43:00,
2013-03-29 15:53:00,57.0,-99.9,-100.00,SE,140,11.0,16.0,-999,-99.99,,,-99.99,,2013-03-29 19:53:00,
2013-03-29 16:03:00,56.0,-99.9,-100.00,SE,125,14.0,20.0,-999,-99.99,,,-99.99,,2013-03-29 20:03:00,
2013-03-29 16:13:00,57.0,-99.9,-100.00,SSE,150,14.0,17.0,-999,-99.99,,,-99.99,,2013-03-29 20:13:00,
2013-03-29 16:23:00,57.0,-99.9,-100.00,SE,130,10.0,18.0,-999,-99.99,,,-99.99,,2013-03-29 20:23:00,
2013-03-29 16:33:00,57.0,-99.9,-100.00,SE,135,11.0,19.0,-999,-99.99,,,-99.99,,2013-03-29 20:33:00,
2013-03-29 16:42:00,58.0,-99.9,-100.00,ESE,115,11.0,16.0,-999,-99.99,,,-99.99,,2013-03-29 20:42:00,
2013-03-29 16:52:00,58.0,-99.9,-100.00,ESE,115,11.0,16.0,-999,-99.99,,,-99.99,,2013-03-29 20:52:00,
2013-03-29 17:02:00,58.0,-99.9,-100.00,SSE,150,12.0,17.0,-999,-99.99,,,-99.99,,2013-03-29 21:02:00,
2013-03-29 17:12:00,58.0,-99.9,-100.00,SE,135,12.0,17.0,-999,-99.99,,,-99.99,,2013-03-29 21:12:00,
2013-03-29 17:22:00,58.0,-99.9,-100.00,SE,145,11.0,21.0,-999,-99.99,,,-99.99,,2013-03-29 21:22:00,
2013-03-29 17:33:00,58.0,-99.9,-100.00,South,175,11.0,19.0,-999,-99.99,,,-99.99,,2013-03-29 21:33:00,
2013-03-29 17:43:00,59.0,-99.9,-100.00,South,185,8.0,19.0,-999,-99.99,,,-99.99,,2013-03-29 21:43:00,
2013-03-29 17:53:00,59.0,-99.9,-100.00,South,185,8.0,19.0,-999,-99.99,,,-99.99,,2013-03-29 21:53:00,
2013-03-29 18:03:00,58.0,-99.9,-100.00,SSE,160,11.0,16.0,-999,-99.99,,,-99.99,,2013-03-29 22:03:00,
2013-03-29 18:13:00,58.0,-99.9,-100.00,SSE,160,11.0,17.0,-999,-99.99,,,-99.99,,2013-03-29 22:13:00,
2013-03-29 18:23:00,58.0,-99.9,-100.00,SSE,155,9.0,18.0,-999,-99.99,,,-99.99,,2013-03-29 22:23:00,
2013-03-29 18:34:00,57.0,-99.9,-100.00,SSE,160,11.0,16.0,-999,-99.99,,,-99.99,,2013-03-29 22:34:00,
2013-03-29 18:43:00,58.0,-99.9,-100.00,South,180,11.0,17.0,-999,-99.99,,,-99.99,,2013-03-29 22:43:00,
2013-03-29 18:54:00,57.0,-99.9,-100.00,SSE,155,11.0,16.0,-999,-99.99,,,-99.99,,2013-03-29 22:54:00,
2013-03-29 19:03:00,57.0,-99.9,-100.00,SE,145,11.0,16.0,-999,-99.99,,,-99.99,,2013-03-29 23:03:00,
2013-03-29 19:12:00,57.0,-99.9,-100.00,SSE,165,12.0,16.0,-999,-99.99,,,-99.99,,2013-03-29 23:12:00,
2013-03-29 19:22:00,57.0,-99.9,-100.00,SSE,155,11.0,16.0,-999,-99.99,,,-99.99,,2013-03-29 23:22:00,
2013-03-29 19:33:00,56.0,-99.9,-100.00,SSE,160,14.0,17.0,-999,-99.99,,,-99.99,,2013-03-29 23:33:00,
2013-03-29 19:43:00,56.0,-99.9,-100.00,SSE,165,9.0,15.0,-999,-99.99,,,-99.99,,2013-03-29 23:43:00,
2013-03-29 19:53:00,56.0,-99.9,-100.00,SSE,160,13.0,16.0,-999,-99.99,,,-99.99,,2013-03-29 23:53:00,
2013-03-29 20:03:00,55.0,-99.9,-100.00,South,170,9.0,16.0,-999,-99.99,,,-99.99,,2013-03-30 00:03:00,
2013-03-29 20:13:00,55.0,-99.9,-100.00,SSE,165,11.0,16.0,-999,-99.99,,,-99.99,,2013-03-30 00:13:00,
2013-03-29 20:23:00,55.0,-99.9,-100.00,South,170,7.0,14.0,-999,-99.99,,,-99.99,,2013-03-30 00:23:00,
2013-03-29 20:33:00,54.0,-99.9,-100.00,South,180,7.0,11.0,-999,-99.99,,,-99.99,,2013-03-30 00:33:00,
2013-03-29 20:43:00,54.0,-99.9,-100.00,South,170,6.0,11.0,-999,-99.99,,,-99.99,,2013-03-30 00:43:00,
2013-03-29 20:53:00,54.0,-99.9,-100.00,South,170,6.0,11.0,-999,-99.99,,,-99.99,,2013-03-30 00:53:00,
2013-03-29 21:03:00,54.0,-99.9,-100.00,SSE,165,7.0,9.0,-999,-99.99,,,-99.99,,2013-03-30 01:03:00,
2013-03-29 21:13:00,54.0,-99.9,-100.00,South,170,5.0,10.0,-999,-99.99,,,-99.99,,2013-03-30 01:13:00,
2013-03-29 21:23:00,54.0,-99.9,-100.00,South,175,8.0,10.0,-999,-99.99,,,-99.99,,2013-03-30 01:23:00,
2013-03-29 21:33:00,54.0,-99.9,-100.00,SSE,155,6.0,10.0,-999,-99.99,,,-99.99,,2013-03-30 01:33:00,
2013-03-29 21:43:00,54.0,-99.9,-100.00,SSE,165,6.0,9.0,-999,-99.99,,,-99.99,,2013-03-30 01:43:00,
2013-03-29 21:53:00,54.0,-99.9,-100.00,SSE,160,6.0,9.0,-999,-99.99,,,-99.99,,2013-03-30 01:53:00,
2013-03-29 22:03:00,54.0,-99.9,-100.00,SE,140,4.0,8.0,-999,-99.99,,,-99.99,,2013-03-30 02:03:00,
2013-03-29 22:13:00,53.0,-99.9,-100.00,SSE,160,6.0,8.0,-999,-99.99,,,-99.99,,2013-03-30 02:13:00,
2013-03-29 22:23:00,53.0,-99.9,-100.00,SSE,160,5.0,7.0,-999,-99.99,,,-99.99,,2013-03-30 02:23:00,
2013-03-29 22:33:00,53.0,-99.9,-100.00,SSE,155,4.0,6.0,-999,-99.99,,,-99.99,,2013-03-30 02:33:00,
2013-03-29 22:43:00,53.0,-99.9,-100.00,SSE,160,4.0,8.0,-999,-99.99,,,-99.99,,2013-03-30 02:43:00,
2013-03-29 22:53:00,53.0,-99.9,-100.00,SSE,160,6.0,7.0,-999,-99.99,,,-99.99,,2013-03-30 02:53:00,
2013-03-29 23:03:00,54.0,-99.9,-100.00,SSE,155,6.0,8.0,-999,-99.99,,,-99.99,,2013-03-30 03:03:00,
2013-03-29 23:12:00,54.0,-99.9,-100.00,SSE,160,7.0,9.0,-999,-99.99,,,-99.99,,2013-03-30 03:12:00,
2013-03-29 23:22:00,54.0,-99.9,-100.00,SSE,165,7.0,11.0,-999,-99.99,,,-99.99,,2013-03-30 03:22:00,
2013-03-29 23:33:00,54.0,-99.9,-100.00,SSE,160,7.0,11.0,-999,-99.99,,,-99.99,,2013-03-30 03:33:00,
2013-03-29 23:44:00,54.0,-99.9,-100.00,SSE,160,8.0,11.0,-999,-99.99,,,-99.99,,2013-03-30 03:44:00,
2013-03-29 23:53:00,54.0,-99.9,-100.00,SSE,160,9.0,11.0,-999,-99.99,,,-99.99,,2013-03-30 03:53:00,